TimeEET,TemperatureF,Dew PointF,Humidity,Sea Level PressureIn,VisibilityMPH,Wind Direction,Wind SpeedMPH,Gust SpeedMPH,PrecipitationIn,Events,Conditions,WindDirDegrees,DateUTC
12:20 AM,37.4,33.8,87,30.15,-9999.0,NE,4.6,-,N/A,,Clear,40,2012-11-04 22:20:00
12:50 AM,41.0,35.6,81,30.15,-9999.0,Calm,Calm,-,N/A,,Clear,0,2012-11-04 22:50:00
1:20 AM,39.2,35.6,87,30.15,-9999.0,NE,2.3,-,N/A,,Clear,40,2012-11-04 23:20:00
1:50 AM,37.4,33.8,87,30.15,-9999.0,NE,2.3,-,N/A,,Clear,50,2012-11-04 23:50:00
2:00 AM,37,33,82,,12,NE,2.3,,,,,50,2012-11-05 00:00:00
2:20 AM,37.4,35.6,93,30.15,-9999.0,ENE,2.3,-,N/A,,Clear,60,2012-11-05 00:20:00
2:50 AM,37.4,35.6,93,30.15,-9999.0,NE,2.3,-,N/A,,Clear,50,2012-11-05 00:50:00
3:20 AM,39.2,35.6,87,30.15,-9999.0,NNE,1.2,-,N/A,,Clear,30,2012-11-05 01:20:00
3:50 AM,35.6,33.8,93,30.15,-9999.0,NE,3.5,-,N/A,,Clear,50,2012-11-05 01:50:00
4:20 AM,35.6,33.8,93,30.15,-9999.0,NE,4.6,-,N/A,,Clear,40,2012-11-05 02:20:00
4:50 AM,35.6,33.8,93,30.15,-9999.0,NE,2.3,-,N/A,,Clear,40,2012-11-05 02:50:00
5:20 AM,35.6,33.8,93,30.15,-9999.0,ENE,1.2,-,N/A,,Clear,60,2012-11-05 03:20:00
5:50 AM,35.6,33.8,93,30.18,-9999.0,NE,1.2,-,N/A,,Clear,50,2012-11-05 03:50:00
6:20 AM,35.6,32.0,87,30.18,-9999.0,NE,2.3,-,N/A,,Clear,50,2012-11-05 04:20:00
6:50 AM,35.6,33.8,93,30.18,-9999.0,NE,1.2,-,N/A,,Clear,50,2012-11-05 04:50:00
7:20 AM,41.0,37.4,87,30.18,-9999.0,NNE,1.2,-,N/A,,Clear,30,2012-11-05 05:20:00
7:50 AM,44.6,39.2,81,30.18,-9999.0,NE,3.5,-,N/A,,Clear,40,2012-11-05 05:50:00
8:00 AM,45,39,72,,12,NE,3.5,,,,Partly Cloudy,40,2012-11-05 06:00:00
8:20 AM,48.2,39.2,71,30.18,6.2,Calm,Calm,-,N/A,,Scattered Clouds,0,2012-11-05 06:20:00
8:50 AM,53.6,39.2,58,30.18,6.2,Calm,Calm,-,N/A,,Mostly Cloudy,0,2012-11-05 06:50:00
9:20 AM,57.2,41.0,55,30.18,6.2,Variable,1.2,-,N/A,,Mostly Cloudy,0,2012-11-05 07:20:00
9:50 AM,59.0,39.2,48,30.18,6.2,Variable,1.2,-,N/A,,Mostly Cloudy,0,2012-11-05 07:50:00
10:20 AM,60.8,39.2,45,30.18,6.2,Calm,Calm,-,N/A,,Mostly Cloudy,0,2012-11-05 08:20:00
10:50 AM,64.4,39.2,40,30.15,6.2,Calm,Calm,-,N/A,,Mostly Cloudy,0,2012-11-05 08:50:00
11:20 AM,64.4,39.2,40,30.15,6.2,Calm,Calm,-,N/A,,Mostly Cloudy,0,2012-11-05 09:20:00
11:50 AM,66.2,41.0,40,30.12,6.2,Variable,1.2,-,N/A,,Mostly Cloudy,0,2012-11-05 09:50:00
12:20 PM,69.8,39.2,33,30.12,6.2,Calm,Calm,-,N/A,,Mostly Cloudy,0,2012-11-05 10:20:00
12:50 PM,69.8,37.4,31,30.12,6.2,Variable,1.2,-,N/A,,Mostly Cloudy,0,2012-11-05 10:50:00
1:20 PM,69.8,35.6,28,30.09,6.2,SW,3.5,-,N/A,,Mostly Cloudy,230,2012-11-05 11:20:00
1:50 PM,71.6,35.6,27,30.09,6.2,Calm,Calm,-,N/A,,Scattered Clouds,0,2012-11-05 11:50:00
2:00 PM,71,35,16,,12,Calm,Calm,,,,Scattered Clouds,,2012-11-05 12:00:00
2:20 PM,71.6,35.6,27,30.09,6.2,Calm,Calm,-,N/A,,Scattered Clouds,0,2012-11-05 12:20:00
2:50 PM,69.8,35.6,28,30.09,6.2,Calm,Calm,-,N/A,,Scattered Clouds,0,2012-11-05 12:50:00
3:20 PM,69.8,33.8,27,30.09,6.2,Calm,Calm,-,N/A,,Scattered Clouds,0,2012-11-05 13:20:00
3:50 PM,69.8,35.6,28,30.09,6.2,Calm,Calm,-,N/A,,Scattered Clouds,0,2012-11-05 13:50:00
4:20 PM,64.4,37.4,37,30.09,6.2,Calm,Calm,-,N/A,,Scattered Clouds,0,2012-11-05 14:20:00
4:50 PM,59.0,39.2,48,30.09,-9999.0,Calm,Calm,-,N/A,,Clear,0,2012-11-05 14:50:00
5:20 PM,57.2,37.4,48,30.09,-9999.0,Calm,Calm,-,N/A,,Clear,0,2012-11-05 15:20:00
5:50 PM,53.6,39.2,58,30.09,-9999.0,NE,1.2,-,N/A,,Clear,40,2012-11-05 15:50:00
6:20 PM,51.8,37.4,58,30.09,-9999.0,ENE,2.3,-,N/A,,Clear,60,2012-11-05 16:20:00
6:50 PM,50.0,35.6,58,30.09,-9999.0,NNE,3.5,-,N/A,,Clear,20,2012-11-05 16:50:00
7:20 PM,48.2,35.6,62,30.09,-9999.0,NE,5.8,-,N/A,,Clear,40,2012-11-05 17:20:00
7:50 PM,50.0,33.8,54,30.09,-9999.0,Variable,1.2,-,N/A,,Clear,0,2012-11-05 17:50:00
8:00 PM,50,34,43,,12,NE,1.2,,,,,40,2012-11-05 18:00:00
8:20 PM,46.4,35.6,66,30.12,-9999.0,Variable,1.2,-,N/A,,Clear,0,2012-11-05 18:20:00
8:50 PM,46.4,35.6,66,30.12,-9999.0,Calm,Calm,-,N/A,,Clear,0,2012-11-05 18:50:00
9:20 PM,44.6,35.6,71,30.12,-9999.0,Calm,Calm,-,N/A,,Clear,0,2012-11-05 19:20:00
9:50 PM,41.0,33.8,76,30.12,-9999.0,NE,2.3,-,N/A,,Clear,40,2012-11-05 19:50:00
10:20 PM,44.6,37.4,76,30.12,-9999.0,NNE,3.5,-,N/A,,Clear,30,2012-11-05 20:20:00
10:50 PM,44.6,35.6,71,30.12,-9999.0,North,4.6,-,N/A,,Clear,10,2012-11-05 20:50:00
11:20 PM,41.0,33.8,76,30.12,-9999.0,NE,4.6,-,N/A,,Clear,40,2012-11-05 21:20:00
11:50 PM,41.0,33.8,76,30.12,-9999.0,Calm,Calm,-,N/A,,Clear,0,2012-11-05 21:50:00